Regional Weather Roundup
Issued by NWS

Home | Current Version | Previous Version | Text Only | Print | Product List | Glossary On
Versions: 1 2 3 4 5 6 7 8 9 10 11 12 13 14 15 16 17 18 19 20 21 22 23 24 25 26 27 28 29 30 31 32 33 34 35 36 37 38 39 40 41 42 43 44 45 46 47 48 49 50
000
ASCA44 KEWX 212120
RWRMX

LATIN AMERICA AND CARIBBEAN REGIONAL WEATHER ROUNDUP
NATIONAL WEATHER SERVICE AUSTIN/SAN ANTONIO TX
300 PM CST SUN DEC 21 2014

NOTE: "FAIR" INDICATED FEW OR NO CLOUDS BELOW 12,000 FEET WITH NO
SIGNIFICANT WEATHER AND/OR OBSTRUCTIONS TO VISIBILITY.

BAJA CALIFORNIA

CITY           SKY/WX    TMP DP  RH WIND       PRES   REMARKS
LORETO         PTSUNNY   73  63  68 NE17      29.96F
LA PAZ         MOSUNNY   75  54  46 N16       29.97
MEXICALI       PTSUNNY   66  41  39 NE5       30.07
S.J. DEL CABO    N/A    N/A N/A N/A MISG        N/A
TIJUANA        CLOUDY    66  48  52 CALM      30.09F

NORTHWESTERN MEXICO

CITY           SKY/WX    TMP DP  RH WIND       PRES   REMARKS
CULIACAN       PTSUNNY   82  57  42 CALM      29.92
DURANGO        SUNNY     73   7   7 W6        30.08F
GUAYMAS        MOSUNNY   79  41  25 N12       29.91
HERMOSILLO     MOSUNNY   77  36  22 CALM      30.00
CD. JUAREZ     PTSUNNY   61  37  41 W23       29.91
LOS MOCHIS     PTSUNNY   77  41  27 W12       29.94F
OBREGON        PTSUNNY   77  37  24 W6        29.92

NORTHEASTERN MEXICO

CITY           SKY/WX    TMP DP  RH WIND       PRES   REMARKS
CHIHUAHUA      MOSUNNY   66  28  24 E10       30.01
MATAMOROS      CLOUDY    66  61  82 NW5       30.00
MONTERREY      SUNNY     68  52  56 SE6       29.93R
NUEVO LAREDO   PTSUNNY   66  54  63 S7        29.94
PIEDRAS NEGRAS PTSUNNY   63  50  63 SE9       29.93F
REYNOSA        CLOUDY    61  54  77 N7        29.96  HAZE
SALTILLO       SUNNY     70  50  49 N7        30.03F
TORREON        MOSUNNY   70  34  26 CALM      30.00F
CD. VICTORIA   CLOUDY    64  59  82 N5        29.94

WESTERN MEXICO

CITY           SKY/WX    TMP DP  RH WIND       PRES   REMARKS
AGUASCALIENTES MOSUNNY   72   7   8 SW18      30.12
COLIMA         MOSUNNY   79  55  44 SW9       29.99F
DEL BAJIO      PTSUNNY   73  36  25 SW8       30.20F
GUADALAJARA    MOSUNNY   77  28  16 W14       30.09
MANZANILLO     MOSUNNY   82  72  69 S9        29.84F
MAZATLAN       SUNNY     77  57  50 SW10      29.89F
P. VALLARTA    PTSUNNY   77  68  73 S9        29.88F
URUAPAN        PTSUNNY   72  54  53 S7        30.13F
ZACATECAS      MOSUNNY   72  14  11 W12G23    30.13F

CENTRAL MEXICO

CITY           SKY/WX    TMP DP  RH WIND       PRES   REMARKS
CUERNAVACA       N/A    N/A N/A N/A MISG        N/A
MEXICO CITY    MOSUNNY   73  21  14 W7        30.19F
MORELIA        PTSUNNY   70  41  35 S12       30.14
POZA RICA      CLOUDY    70  64  83 CALM      30.03S
PUEBLA         CLOUDY    70  43  37 S14       30.21F
QUERETARO      PTSUNNY   70  37  30 W12       30.18F
S. LUIS POTOSI PTSUNNY   72  19  14 SW12      30.08F
TAMPICO        CLOUDY    70  63  78 CALM      29.91F
TOLUCA         PTSUNNY   68  19  15 W8        30.26F

SOUTHERN MEXICO

CITY           SKY/WX    TMP DP  RH WIND       PRES   REMARKS
B. DE HUATULCO MOSUNNY   86  68  54 CALM      29.88
OAXACA         CLOUDY    77  43  29 S9        30.11F
P. ESCONDIDO   PTSUNNY   86  72  62 W9        30.03S HX  92
VERACRUZ       PTSUNNY   75  66  73 E12       29.91F
ZIHUATANEJO    PTSUNNY   86  72  62 W12       29.88F HX  92

YUCATAN PENINSULA

CITY           SKY/WX    TMP DP  RH WIND       PRES   REMARKS
CAMPECHE       PTSUNNY   75  72  88 N12       29.91F
CANCUN         PTSUNNY   82  73  74 SE9       29.93F
CHETUMAL       MOSUNNY   84  75  74 E12       29.90F HX  92
CD. DEL CARMEN MOSUNNY   79  72  78 N8        29.92
COZUMEL        MOSUNNY   79  73  83 SE7       29.94F
MERIDA         PTSUNNY   84  72  65 NE5       29.91F
MINATITLAN     MOSUNNY   81  68  65 N9        29.86
TAPACHULA      SUNNY     84  73  70 SW8       29.84F HX  91
TUX. GUTIERREZ SUNNY     84  61  45 SW5       29.90F
VILLAHERMOSA   MOSUNNY   82  68  61 E7        29.92F

CENTRAL AMERICA

CITY           SKY/WX    TMP DP  RH WIND       PRES   REMARKS
BELIZE CITY    MOSUNNY   86  72  62 SE6       29.90F HX  92
MANAGUA        PTCLDY    90  64  43 E14       29.80S HX  91

CARIBBEAN

CITY           SKY/WX    TMP DP  RH WIND       PRES   REMARKS
ARUBA          MOSUNNY   86  73  66 E20       29.86S HX  93
CURACAO        MOSUNNY   84  72  65 E13       29.89S
KINGSTON       MOSUNNY   86  73  66 SE23      29.89F HX  93
NASSAU         MOSUNNY   81  68  65 E3        30.05S
SAN JUAN       MOSUNNY   81  66  61 E12       30.02S
SANTO DOMINGO  PTSUNNY   81  73  78 NE12      29.97S
ST. KITTS      MOCLDY    81  73  78 N13       30.00S
ST. MAARTEN    PTCLDY    81  72  74 NE14      30.00S

$$



USA.gov is the U.S. government's official web portal to all federal, state and local government web resources and services.